CW7842 Weather Reports


time (UTC)temp
F
wind
direction
speed
knots
gust
knots
rain 1hr
in
rain 24hr
in
rain mn
in
humidity
%
barometer
mb
20260507120510 57 5 0.0 0.0 0.00 0.46 0.46 70 1014.4
20260507113510 58 66 0.0 0.0 0.00 0.46 0.46 71 1014.2
20260507110509 57 22 0.9 6.1 0.00 0.46 0.46 74 1014.2
20260507100513 55 61 0.0 0.0 0.00 0.46 0.46 78 1014.1
20260507093512 54 5 0.0 0.0 0.00 0.46 0.46 80 1014.0
20260507090511 54 61 0.0 0.0 0.00 0.46 0.46 82 1013.8
20260507083510 53 320 0.0 0.0 0.00 0.46 0.46 83 1013.5
20260507080510 53 334 0.0 4.3 0.00 0.46 0.46 87 1013.3
20260507073514 52 28 0.0 0.0 0.01 0.46 0.46 91 1013.1
20260507063513 51 297 0.0 0.0 0.02 0.46 0.46 93 1012.7
20260507060513 50 288 0.0 0.0 0.02 0.45 0.45 93 1012.4
20260507053511 50 289 0.0 0.0 0.03 0.44 0.44 93 1012.1
20260507050510 50 333 0.0 0.0 0.03 0.43 0.43 93 1011.8
20260507043509 50 340 0.0 0.0 0.03 0.41 0.41 93 1011.4
20260507040514 50 308 0.0 0.0 0.04 0.39 0.39 92 1011.0
20260507033513 50 331 0.0 0.0 0.05 0.38 0.38 92 1010.8
20260507023511 51 74 0.0 0.0 0.05 0.33 0.33 92 1010.3
20260507020510 51 209 0.0 0.0 0.07 0.31 0.31 92 1010.1
20260507013510 51 169 0.0 0.0 0.08 0.28 0.28 92 1009.6
20260507010514 51 169 0.0 0.0 0.07 0.24 0.24 92 1009.4
20260507003513 51 169 0.0 0.0 0.06 0.20 0.20 92 1009.3
20260507000512 52 334 0.0 0.0 0.08 0.17 0.17 92 1009.1
20260506233512 52 264 0.9 9.6 0.09 0.14 0.14 92 1008.9
20260506230511 52 262 1.7 13.0 0.09 0.09 0.09 92 1008.8
20260506223510 52 305 0.0 0.0 0.06 0.06 0.06 91 1008.7
20260506220509 52 211 0.0 0.0 0.01 0.01 0.01 91 1008.6
20260506213514 52 301 0.9 10.4 0.09 0.29 0.29 91 1008.4
20260506210513 53 319 3.5 13.9 0.09 0.24 0.24 91 1008.1
20260506203512 53 256 0.9 12.2 0.08 0.20 0.20 90 1008.0
20260506200512 53 248 1.7 12.2 0.06 0.15 0.15 90 1007.8
20260506193511 53 260 1.7 8.7 0.04 0.12 0.12 89 1007.5
20260506190510 54 316 0.0 7.8 0.03 0.09 0.09 89 1007.1
20260506183509 54 246 0.9 8.7 0.02 0.08 0.08 89 1006.9
20260506180514 55 324 0.9 6.1 0.00 0.06 0.06 88 1006.4
20260506173513 55 229 0.0 7.8 0.01 0.06 0.06 88 1006.0
20260506170512 56 223 1.7 9.6 0.01 0.06 0.06 88 1005.7
20260506163511 56 251 2.6 10.4 0.02 0.05 0.05 87 1005.8
20260506153510 57 244 0.0 0.0 0.03 0.03 0.03 83 1005.9
20260506150509 59 247 0.0 0.0 0.00 0.00 0.00 79 1005.8
20260506143513 63 238 0.9 10.4 0.00 0.00 0.00 68 1005.4
20260506140513 63 308 0.0 0.9 0.00 0.00 0.00 65 1004.9
20260506130511 65 319 0.0 3.5 0.00 0.00 0.00 63 1004.7
20260506123511 66 350 0.0 3.5 0.00 0.00 0.00 64 1004.6